Find Meteosat 14

NORAD ID: 100530 Int'l Des: 2026-198 Owner: EUMET Country: I-EUM operational
又名: MTG-I2 spacetrack, celestrak

当前视图

正在加载3D地球...

About Meteosat 14

Meteosat 14 (NORAD 100530) is a satellite launched Aug 27, 2026 by EUMET of I-EUM. with a mass of 3800.00 kg.

即将过境

Passes for default location (London). Set your location on the main map for personalized predictions.

高度历史

Loading altitude history...

两行轨道根数

1 A0530U 26198A 26263.77700274 .00000017 00000-0 00000-0 0 9995
2 A0530 0.9861 302.5501 0000371 181.7045 158.6305 1.00271902 287
Epoch: Sep 20, 2026 • Age: 14 hours

当前状态

高度 35784.5 km
远地点 / 近地点 N/A
速度 3.07 km/s
星下点 -0.19°S, 3.49°E
发射日期 Aug 27, 2026
运行时间 25 days
类型 weather

技术详情

分类 Payload
质量 3800.00 kg
干质量 2500.00 kg
长度 5.20 m
直径 2.30 m
跨度 10.00 m
形状 ? Box + 2 pan
制造商 THALES
平台类型 MTG
阶段状态 In Orbit
所有者/国家 EUMET/I-EUM

Most Searched